Tracking 28081 objects as of 27-Sep-2023
HD Live streaming from Space Station
objects crossing your sky now

STARLINK-3931

Track STARLINK-3931 now!
10-day predictions
STARLINK-3931 is classified as:


NORAD ID: 52548
Int'l Code: 2022-051R
Perigee: 545.7 km
Apogee: 547.8 km
Inclination: 53.2 °
Period: 95.4 minutes
Semi major axis: 6917 km
RCS: Unknown
Launch date: May 13, 2022
Source: United States (US)
Launch site: AIR FORCE WESTERN TEST RANGE (AFWTR)
Your satellite tracking list
Your tracking list is empty




NASA's NSSDC Master Catalog

Two Line Element Set (TLE):
1 52548U 22051R   23269.15902285  .00014357  00000-0  91743-3 0  9995
2 52548  53.2162 189.3155 0001517  87.1563 272.9603 15.08874049 76256
Source of the keplerian elements: AFSPC